Holbrook, NY

4:02 AM EDT on August 25, 2016 (GMT -0400)
Long Island Mac Arthur

Weather History for KISP - January, 2013

Change the Weather History Date:

Wednesday, January 2, 2013

  Actual Average Record
Temperature  
Mean Temperature 28 °F 32 °F  
Max Temperature 32 °F 39 °F 57 °F (2000)
Min Temperature 23 °F 24 °F 8 °F (1999)
Degree Days  
Heating Degree Days 37 34  
Month to date heating degree days 68 67  
Since 1 July heating degree days 1781 1994  
Cooling Degree Days 0 0  
Month to date cooling degree days 0 0  
Year to date cooling degree days 0 0  
Moisture  
Dew Point 12 °F    
Average Humidity 51    
Maximum Humidity 59    
Minimum Humidity 43    
Precipitation  
Precipitation 0.00 in 0.12 in 0.89 in (1987)
Month to date precipitation 0.00 0.24  
Year to date precipitation 0.00 0.24  
Snow  
Snow 0.00 in 0.30 in 4.70 in (2014)
Month to date snowfall 0.0 0.5  
Since 1 July snowfall 4.8 6.4  
Snow Depth 0.00 in    
Sea Level Pressure  
Sea Level Pressure 30.04 in    
Wind  
Wind Speed 9 mph (WNW)    
Max Wind Speed 21 mph    
Max Gust Speed 26 mph    
Visibility 10 miles    
Events      
T = Trace of Precipitation, MM = Missing Value Source: NWS Daily Summary

Daily Weather History Graph

Daily Weather History Graph

Search for Another Location

Airport or City:

Trip Planner

Search our weather history database for the weather conditions in past years. The results will help you decide how hot, cold, wet, or windy it might be!

Date:

Astronomy

Jan. 02, 2013 Rise Set
Actual Time 7:16 AM EST 4:36 PM EST
Civil Twilight 6:46 AM EST 5:07 PM EST
Nautical Twilight 6:11 AM EST 5:41 PM EST
Astronomical Twilight 5:38 AM EST 6:15 PM EST
Moon 10:08 PM EST (1/2) 9:55 AM EST (1/2)
Length of Visible Light 10h 21m
Length of Day
9h 19m
Waning Gibbous, 75% of the Moon is Illuminated
Jan 2
Waning Gibbous
Jan 4
Last Quarter
Jan 11
New
Jan 18
First Quarter
Jan 26
Full

Hourly Weather History & Observations

Time (EST) Temp. Windchill Dew Point Humidity Pressure Visibility Wind Dir Wind Speed Gust Speed Precip Events Conditions
12:56 AM 27.0 °F 18.7 °F 8.1 °F 45% 29.96 in 10.0 mi NW 8.1 mph - N/A   Overcast
1:56 AM 26.1 °F 17.6 °F 10.0 °F 51% 29.98 in 10.0 mi NW 8.1 mph - N/A   Overcast
2:56 AM 26.1 °F 16.8 °F 10.9 °F 53% 29.98 in 10.0 mi NW 9.2 mph - N/A   Overcast
3:56 AM 25.0 °F 14.2 °F 9.0 °F 51% 29.98 in 10.0 mi NNW 11.5 mph - N/A   Overcast
4:56 AM 24.1 °F 13.1 °F 10.0 °F 55% 29.99 in 10.0 mi NNW 11.5 mph - N/A   Overcast
5:56 AM 23.0 °F 12.4 °F 10.0 °F 58% 29.99 in 10.0 mi NW 10.4 mph - N/A   Overcast
6:56 AM 23.0 °F 13.9 °F 10.0 °F 58% 30.01 in 10.0 mi NW 8.1 mph - N/A   Mostly Cloudy
7:56 AM 23.0 °F 14.7 °F 10.0 °F 58% 30.01 in 10.0 mi NW 6.9 mph - N/A   Mostly Cloudy
8:56 AM 24.1 °F 15.2 °F 10.0 °F 55% 30.03 in 10.0 mi West 8.1 mph - N/A   Mostly Cloudy
9:56 AM 26.1 °F 15.6 °F 10.0 °F 51% 30.05 in 10.0 mi WNW 11.5 mph - N/A   Mostly Cloudy
10:56 AM 28.9 °F 18.2 °F 10.0 °F 45% 30.04 in 10.0 mi NW 13.8 mph 21.9 mph N/A   Mostly Cloudy
11:56 AM 28.9 °F 18.2 °F 10.0 °F 45% 30.01 in 10.0 mi NW 13.8 mph 25.3 mph N/A   Mostly Cloudy
12:56 PM 30.0 °F 19.1 °F 10.9 °F 45% 29.99 in 10.0 mi WNW 15.0 mph 26.5 mph N/A   Mostly Cloudy
1:56 PM 30.9 °F 21.2 °F 12.0 °F 46% 30.00 in 10.0 mi WNW 12.7 mph - N/A   Mostly Cloudy
2:56 PM 32.0 °F 22.5 °F 12.9 °F 45% 30.02 in 10.0 mi NW 12.7 mph - N/A   Mostly Cloudy
3:56 PM 30.9 °F 21.7 °F 12.9 °F 47% 30.03 in 10.0 mi WNW 11.5 mph - N/A   Mostly Cloudy
4:56 PM 30.0 °F 22.4 °F 14.0 °F 51% 30.05 in 10.0 mi NW 8.1 mph - N/A   Mostly Cloudy
5:56 PM 30.0 °F 21.7 °F 12.9 °F 49% 30.08 in 10.0 mi NW 9.2 mph - N/A   Mostly Cloudy
6:56 PM 30.0 °F 24.1 °F 14.0 °F 51% 30.10 in 10.0 mi WNW 5.8 mph - N/A   Mostly Cloudy
7:56 PM 30.0 °F 24.1 °F 14.0 °F 51% 30.10 in 10.0 mi West 5.8 mph - N/A   Mostly Cloudy
8:56 PM 28.9 °F 22.8 °F 15.1 °F 56% 30.11 in 10.0 mi West 5.8 mph - N/A   Mostly Cloudy
9:56 PM 28.9 °F 21.9 °F 15.1 °F 56% 30.13 in 10.0 mi West 6.9 mph - N/A   Mostly Cloudy
10:56 PM 28.9 °F 22.8 °F 15.1 °F 56% 30.14 in 10.0 mi West 5.8 mph - N/A   Mostly Cloudy
11:56 PM 28.0 °F 21.7 °F 16.0 °F 61% 30.14 in 10.0 mi West 5.8 mph - N/A   Mostly Cloudy